Total_Precipitation_Accumulation
0.28 0.41 0.92 1.14 1.28 1.26 1.12 0.99 0.94 0.93 0.95 0.98 1.00 1.00 0.94 0.94 0.97 0.91 0.89 0.90 0.97 1.07 1.16 1.17 1.12 1.00 0.86 0.82 0.74 0.68 0.64 0.60 0.58 0.54 0.49 0.60 0.71 0.73 0.60 0.58 0.68 0.68 0.87
0.27 0.40 0.85 1.08 1.21 1.13 1.05 0.97 0.89 0.87 0.91 1.00 1.10 1.11 1.03 1.00 0.99 0.96 0.91 0.94 1.00 1.14 1.30 1.27 1.14 0.96 0.73 0.61 0.56 0.54 0.50 0.40 0.35 0.24 0.19 0.27 0.46 0.62 0.63 0.58 0.64 0.75 0.88
0.25 0.36 0.70 1.05 1.16 1.15 1.13 1.04 0.95 0.90 0.93 1.05 1.17 1.16 1.07 0.97 0.95 0.97 0.92 0.93 0.99 1.11 1.19 1.15 1.01 0.84 0.66 0.57 0.50 0.46 0.40 0.31 0.22 0.14 0.16 0.25 0.37 0.59 0.62 0.65 0.76 0.82 0.90
0.28 0.35 0.63 1.09 1.20 1.18 1.13 1.10 1.05 0.98 0.95 1.03 1.14 1.08 1.04 1.01 1.01 0.94 0.94 0.96 0.99 0.98 0.94 0.92 0.84 0.72 0.58 0.50 0.47 0.45 0.39 0.30 0.19 0.14 0.25 0.35 0.40 0.66 0.74 0.75 0.86 0.85 0.85
0.35 0.42 0.72 1.13 1.25 1.20 1.17 1.10 1.12 1.13 1.08 1.07 1.07 1.06 1.03 0.99 1.03 1.00 0.94 0.93 0.92 0.93 0.86 0.78 0.70 0.61 0.51 0.47 0.44 0.44 0.37 0.28 0.17 0.17 0.28 0.40 0.58 0.93 0.95 0.85 0.87 0.81 0.75
0.43 0.62 0.89 1.19 1.30 1.28 1.22 1.17 1.19 1.23 1.27 1.21 1.16 1.12 1.13 1.11 1.12 1.07 0.95 0.84 0.84 0.84 0.82 0.74 0.63 0.58 0.50 0.44 0.44 0.44 0.39 0.26 0.17 0.23 0.29 0.39 0.63 1.05 1.05 0.95 0.92 0.92 0.88
0.52 0.76 1.07 1.33 1.39 1.35 1.30 1.29 1.32 1.38 1.42 1.38 1.32 1.28 1.23 1.25 1.22 1.11 0.96 0.84 0.84 0.83 0.83 0.79 0.67 0.60 0.56 0.49 0.51 0.49 0.36 0.23 0.20 0.26 0.36 0.45 0.73 1.06 1.08 1.02 1.06 1.05 1.03
0.79 1.02 1.32 1.55 1.52 1.39 1.30 1.25 1.27 1.40 1.45 1.39 1.31 1.34 1.35 1.29 1.23 1.14 0.99 0.91 0.91 0.95 0.96 0.88 0.79 0.68 0.61 0.55 0.52 0.47 0.33 0.24 0.24 0.24 0.32 0.43 0.77 1.09 1.16 1.08 1.11 1.14 1.12
1.31 1.48 1.60 1.67 1.59 1.55 1.39 1.25 1.21 1.27 1.37 1.38 1.31 1.26 1.28 1.29 1.30 1.21 1.10 1.06 1.03 1.06 1.02 0.93 0.83 0.77 0.69 0.60 0.49 0.37 0.28 0.25 0.24 0.23 0.24 0.36 0.71 1.10 1.27 1.23 1.24 1.30 1.22
1.80 1.92 1.96 1.93 1.80 1.68 1.55 1.34 1.21 1.23 1.27 1.31 1.29 1.15 1.06 1.12 1.21 1.14 1.02 1.05 1.06 1.06 0.98 0.89 0.85 0.84 0.76 0.66 0.47 0.33 0.28 0.28 0.23 0.24 0.29 0.42 0.81 1.23 1.39 1.35 1.37 1.35 1.29
2.19 2.24 2.32 2.27 2.10 1.97 1.73 1.42 1.32 1.35 1.35 1.28 1.23 1.08 1.06 1.10 1.11 1.03 0.95 0.90 0.90 0.92 0.89 0.88 0.87 0.81 0.73 0.67 0.50 0.36 0.33 0.30 0.25 0.26 0.32 0.54 0.95 1.27 1.40 1.37 1.40 1.29 1.18
2.34 2.41 2.45 2.48 2.43 2.33 2.09 1.79 1.65 1.51 1.46 1.32 1.18 1.15 1.09 1.11 1.17 1.07 1.02 0.91 0.83 0.82 0.81 0.86 0.88 0.83 0.72 0.64 0.56 0.42 0.36 0.34 0.35 0.32 0.36 0.60 0.96 1.28 1.42 1.40 1.36 1.26 1.14
2.51 2.60 2.63 2.71 2.65 2.52 2.26 1.98 1.79 1.70 1.64 1.53 1.36 1.28 1.20 1.22 1.22 1.24 1.20 1.11 0.96 0.84 0.85 0.83 0.80 0.69 0.64 0.60 0.60 0.47 0.38 0.36 0.39 0.37 0.42 0.58 0.89 1.29 1.48 1.46 1.37 1.31 1.19
2.65 2.62 2.71 2.81 2.79 2.65 2.40 2.20 1.94 1.83 1.80 1.74 1.59 1.51 1.47 1.38 1.34 1.26 1.18 1.14 1.12 0.95 0.93 0.90 0.75 0.63 0.61 0.56 0.57 0.54 0.47 0.44 0.43 0.45 0.46 0.56 0.81 1.18 1.38 1.39 1.36 1.34 1.34
2.60 2.70 2.83 2.82 2.78 2.77 2.66 2.39 2.11 1.98 1.89 1.86 1.89 1.75 1.65 1.55 1.48 1.46 1.32 1.22 1.14 1.11 1.08 1.05 0.94 0.85 0.76 0.69 0.64 0.60 0.56 0.51 0.48 0.48 0.49 0.49 0.60 0.88 1.18 1.35 1.47 1.48 1.47
2.33 2.62 2.81 2.86 2.81 2.75 2.77 2.65 2.31 2.00 1.96 1.95 1.92 1.94 1.89 1.78 1.67 1.60 1.51 1.44 1.32 1.24 1.20 1.17 1.06 1.09 1.07 0.96 0.83 0.73 0.65 0.59 0.54 0.49 0.47 0.49 0.56 0.67 0.93 1.23 1.41 1.52 1.67
2.08 2.36 2.64 2.88 2.92 2.79 2.76 2.81 2.73 2.39 2.10 1.92 1.88 1.92 1.96 1.90 1.80 1.73 1.70 1.58 1.40 1.35 1.37 1.36 1.31 1.28 1.24 1.13 1.00 0.93 0.85 0.77 0.69 0.62 0.57 0.54 0.57 0.63 0.80 1.06 1.28 1.46 1.71
1.93 2.15 2.39 2.55 2.78 2.80 2.73 2.73 2.79 2.65 2.42 2.20 1.98 1.91 1.88 1.84 1.84 1.84 1.80 1.77 1.62 1.57 1.58 1.54 1.46 1.41 1.31 1.22 1.12 1.06 0.99 0.94 0.87 0.86 0.81 0.71 0.67 0.63 0.74 0.99 1.17 1.37 1.63
1.81 2.06 2.36 2.36 2.50 2.76 2.97 2.88 2.73 2.66 2.50 2.36 2.17 1.95 1.84 1.89 1.94 1.90 1.77 1.75 1.79 1.70 1.65 1.67 1.62 1.53 1.45 1.40 1.34 1.24 1.15 1.08 1.00 0.98 1.00 0.94 0.88 0.81 0.77 0.89 1.03 1.15 1.41
1.81 2.00 2.30 2.35 2.46 2.70 2.99 3.05 2.96 2.80 2.57 2.47 2.26 2.01 1.87 1.84 1.95 1.91 1.79 1.80 1.86 1.81 1.67 1.61 1.58 1.57 1.51 1.55 1.55 1.44 1.35 1.26 1.20 1.12 1.07 1.06 1.03 0.97 0.90 0.86 0.87 0.94 1.14
1.92 1.98 2.16 2.33 2.45 2.57 2.72 2.70 2.61 2.63 2.62 2.56 2.41 2.25 2.11 2.01 2.00 2.01 1.92 1.91 1.93 1.87 1.78 1.79 1.81 1.73 1.63 1.63 1.64 1.50 1.40 1.37 1.26 1.20 1.14 1.04 0.99 0.99 1.00 0.96 0.88 0.85 0.91
1.83 1.91 2.11 2.29 2.38 2.39 2.52 2.68 2.60 2.66 2.75 2.81 2.74 2.54 2.38 2.28 2.22 2.14 2.14 2.16 2.12 2.03 1.96 1.91 1.93 1.92 1.81 1.77 1.78 1.75 1.58 1.53 1.36 1.15 1.11 1.03 0.99 0.98 0.98 1.04 1.02 0.92 0.84
1.70 1.93 2.05 2.17 2.32 2.38 2.61 3.03 2.98 2.88 2.83 2.86 2.88 2.78 2.60 2.48 2.43 2.32 2.25 2.32 2.31 2.19 2.09 2.02 1.97 1.94 1.98 1.95 1.87 1.97 1.75 1.47 1.33 1.22 1.11 1.05 1.03 1.04 1.02 1.05 1.07 1.03 0.94
1.50 1.78 2.06 2.20 2.36 2.57 2.82 3.04 3.07 2.83 2.67 2.64 2.67 2.77 2.78 2.55 2.49 2.47 2.43 2.40 2.42 2.38 2.22 2.14 2.09 2.06 2.08 2.07 1.99 1.81 1.70 1.48 1.41 1.29 1.17 1.15 1.12 1.06 1.04 1.04 1.07 1.09 1.09
1.36 1.55 1.82 2.10 2.24 2.53 2.76 2.90 3.07 2.86 2.59 2.62 2.63 2.62 2.71 2.65 2.47 2.44 2.40 2.33 2.29 2.31 2.35 2.32 2.17 2.12 2.07 1.96 1.90 1.78 1.68 1.48 1.31 1.32 1.18 1.09 1.12 1.08 1.03 1.01 1.06 1.11 1.13
1.20 1.34 1.50 1.74 1.89 2.05 2.30 2.55 2.76 2.80 2.72 2.63 2.50 2.47 2.52 2.51 2.46 2.42 2.42 2.31 2.19 2.13 2.13 2.24 2.26 2.15 2.08 1.98 1.87 1.80 1.72 1.62 1.44 1.41 1.36 1.15 1.11 1.09 1.07 1.05 1.02 1.05 1.09